Location: Bismarck
(46.7731°N, 100.8200°W)
Time: 14:04:43
(UTC-06:00)

ISS - Pass Details

Date: 30 November 2017
Orbit: 402 x 407 km, 51.6° (Epoch: 13 December)

Event Time Altitude Azimuth Distance (km) Brightness Sun altitude
Rises 18:47:53 0° 241° (WSW) 2,322 1.5 -18.3°
Reaches altitude 10° 18:49:58 10° 241° (WSW) 1,464 0.1 -18.6°
Maximum altitude 18:53:15 86° 155° (SSE) 412 -3.9 -19.2°
Enters shadow 18:53:24 80° 88° (E) 417 -4.0 -19.2°
